Location: Bellerive
(46.9237°N, 7.0223°E)
Time: 17:52:24
(UTC+00:00)

YAOGAN 1 - Pass Details

Date: 09 April 2020
Orbit: 618 x 620 km, 97.9° (Epoch: 29 May)

Event Time Altitude Azimuth Distance (km) Brightness Sun altitude
Rises 18:32:18 0° 183° (S) 2,884 5.9 -4.1°
Reaches altitude 10° 18:34:34 10° 190° (S) 1,983 5.1 -4.4°
Maximum altitude 18:38:39 42° 262° (W) 898 4.1 -5.1°
Drops below altitude 10° 18:42:47 10° 333° (NNW) 1,999 5.9 -5.8°
Sets 18:45:06 0° 341° (NNW) 2,911 6.6 -6.2°
